www.pogodaiklimat.ru

Погода и климат >> Архив погоды >> Кука Острова >> Penrhyn


ПОГОДА в Penrhyn

  • Прогноз погоды в Penrhyn
  • Монитор погоды в Penrhyn
  • Климат города

АРХИВ ПОГОДЫ в Penrhyn

Время (UTC), дата Ветер
(напр.,м/с)
 
Видим.   Явления Облачность Т
(С)
Тd
(С)
f
(%)
Тe
(С)
Тes
(С)
Комфортность P
(гПа)
Po
(гПа)
Тmin
(С)
Tmax
(С)
R
(мм)
R24
(мм)
S
(см)
09 18.04 Ю 1 н/о н/о +27.6 +25.0 86 +40 +40 очень
душно
1012.3 1012.0
12 18.04 ЮВ 1 н/о н/о +27.0 +24.8 88 +39 +39 очень
душно
1010.7 1011.0 +32.3
15 18.04 ЮВ 1 н/о н/о +27.3 +25.4 89 +40 +40 очень
душно
1010.5 1011.0
21 18.04 Ю 2 н/о н/о +31.3 +26.0 74 +47 +47 опасность
перегрева
1012.0 1012.0
00 19.04 Ю 2 н/о н/о +32.4 +26.1 69 +48 +48 опасность
перегрева
1009.1 1009.0 +26.6
03 19.04 Ю 3 н/о н/о +30.6 +25.4 74 +45 +45 опасность
перегрева
1008.6 1009.0
06 19.04 Ю 1 н/о н/о +28.1 +25.4 85 +41 +41 опасность
перегрева
1009.5 1010.0
09 19.04 Ю 1 н/о н/о +28.0 +25.1 84 +40 +40 очень
душно
1010.3 1010.0
12 19.04 Ю 1 н/о н/о +27.5 +24.9 86 +39 +39 очень
душно
1008.5 1009.0 +32.5
15 19.04 ЮВ 1 н/о н/о +27.6 +25.1 86 +40 +40 очень
душно
1008.3 1008.0
18 19.04 В 1 н/о н/о +29.6 +25.0 76 +42 +42 опасность
перегрева
1010.3 1010.0
21 19.04 В 1 н/о н/о +31.4 +26.0 73 +47 +47 опасность
перегрева
1010.7 1011.0
00 20.04 В 2 н/о н/о +32.2 +26.0 70 +48 +48 опасность
перегрева
1008.5 1009.0 +27.4
03 20.04 В 2 н/о н/о +31.8 +25.5 69 +46 +46 опасность
перегрева
1007.9 1008.0
06 20.04 штиль 0 н/о н/о +27.3 +25.2 88 +39 +39 очень
душно
1010.1 1010.0 0.6
09 20.04 СВ 1 н/о н/о +28.5 +25.7 85 +42 +42 опасность
перегрева
1009.9 1010.0
12 20.04 В 2 н/о н/о +27.9 +25.2 85 +40 +40 очень
душно
1008.3 1008.0 +33.1 1
15 20.04 В 2 н/о н/о +28.2 +25.7 86 +42 +42 опасность
перегрева
1007.6 1008.0
18 20.04 В 1 н/о н/о +29.9 +26.2 81 +46 +46 опасность
перегрева
1010.1 1010.0
21 20.04 В 2 н/о н/о +31.0 +25.9 74 +46 +46 опасность
перегрева
1011.1 1011.0
00 21.04 В 2 н/о н/о +31.3 +26.6 76 +48 +48 опасность
перегрева
1008.8 1009.0 +27.3
03 21.04 В 1 н/о н/о +29.1 +26.9 88 +46 +46 опасность
перегрева
1009.2 1009.0
06 21.04 В 2 н/о н/о +29.3 +26.6 85 +45 +45 опасность
перегрева
1010.9 1011.0 6
09 21.04 ЮВ 2 н/о н/о +28.6 +26.6 89 +44 +44 опасность
перегрева
1011.1 1011.0
12 21.04 В 1 н/о н/о +28.9 +26.0 84 +43 +43 опасность
перегрева
1009.6 1010.0 +32.7 2
15 21.04 В 2 н/о н/о +29.0 +25.9 83 +43 +43 опасность
перегрева
1008.7 1009.0
18 21.04 В 1 н/о н/о +28.8 +26.9 89 +45 +45 опасность
перегрева
1011.2 1011.0 3
21 21.04 В 3 н/о н/о +27.4 +25.5 89 +40 +40 очень
душно
1011.6 1012.0
03 22.04 В 1 н/о н/о +30.0 +25.9 79 +45 +45 опасность
перегрева
1007.5 1008.0
06 22.04 Ю 2 н/о н/о +27.3 +25.8 92 +41 +41 опасность
перегрева
1010.0 1010.0 0.2
09 22.04 Ю 3 н/о н/о +28.1 +26.2 89 +42 +42 опасность
перегрева
1010.5 1011.0
15 22.04 ЮВ 2 н/о н/о +28.0 +25.6 87 +41 +41 опасность
перегрева
1007.8 1008.0
21 22.04 ЮВ 4 н/о н/о +31.6 +27.1 77 +50 +50 опасность
перегрева
1010.3 1010.0
00 23.04 ЮВ 3 н/о н/о +29.7 +25.3 77 +43 +43 опасность
перегрева
1007.7 1008.0 +27.1
03 23.04 Ю 3 н/о н/о +30.9 +26.3 77 +47 +47 опасность
перегрева
1006.8 1007.0
06 23.04 Ю 2 н/о н/о +28.0 +25.6 87 +41 +41 опасность
перегрева
1008.5 1009.0
09 23.04 З 1 н/о н/о +27.8 +25.8 89 +41 +41 опасность
перегрева
1008.8 1009.0
12 23.04 ЮВ 1 н/о н/о +27.2 +25.3 89 +39 +39 очень
душно
1007.3 1007.0 +32.4
15 23.04 штиль 0 н/о н/о +26.5 +25.1 92 +38 +38 очень
душно
1006.6 1007.0
21 23.04 СВ 2 н/о н/о +26.1 +25.1 94 +37 +37 очень
душно
1010.0 1010.0
03 24.04 СВ 3 н/о н/о +28.3 +25.6 85 +42 +42 опасность
перегрева
1007.2 1007.0
06 24.04 С 3 н/о н/о +27.3 +24.7 86 +39 +39 очень
душно
1009.0 1009.0
09 24.04 СВ 2 н/о н/о +27.7 +24.8 84 +39 +39 очень
душно
1010.2 1010.0
12 24.04 С 1 н/о н/о +24.9 +24.0 95 +34 +34 очень
душно
1009.0 1009.0 +28.3
15 24.04 Ю 1 н/о н/о +25.0 +24.5 97 +35 +35 очень
душно
1008.7 1009.0
18 24.04 0 н/о
21 24.04 В 2 н/о н/о +30.2 +26.3 80 +46 +46 опасность
перегрева
1011.2 1011.0
00 25.04 ЮВ 2 н/о н/о +31.4 +25.9 73 +47 +47 опасность
перегрева
1008.2 1008.0 +24.8
03 25.04 С 1 н/о н/о +28.5 +25.5 84 +42 +42 опасность
перегрева
1008.5 1009.0

 

Местоположение метеостанции Penrhyn (Кука Острова): широта -9.03 долгота -158.00 высота над уровнем моря 1 м.

В архиве по умолчанию представлена погода в Penrhyn за последнюю неделю. Архивные данные за месяц целиком и за предыдущие месяцы, начиная с января 2011 года, Вы можете получить, выбрав интересующий диапазон дат из раскрывающегося списка и нажав кнопку "Ввод!".

Внимание! Время в таблицах - всемирное. Для получения местного времени необходимо прибавить поправку, которая в Penrhyn равна -10 ч.

Смотрите также архив погоды в соседних городах и на ближайших метеорологических станциях:

Погода в Manihiki (Кука Острова) (366 км)
Погода в Bora-Bora Airport (Французская Полинезия) (1070 км)
Погода в Aitutaki (Кука Острова) (1105 км)
Погода в Christmas (Кирибати) (1226 км)
Погода в Tahiti-Faaa (Французская Полинезия) (1313 км)
Погода в Rarotonga (Кука Острова) (1367 км)
Погода в Takaroa (Французская Полинезия) (1539 км)
Погода в Lufi-Lufi (Самоа) (1573 км)
Погода в Le Mafa (Самоа) (1580 км)
Погода в Apia (Американское Самоа) (1584 км)

Пояснения к столбцам:

Ветер - указаны скорость ветра в м/с - средняя за 10 мин, порывы в срок и между сроками (в фигурных скобках) и направление, откуда дует ветер: С - северный, СВ - северо-восточный, В - восточный, ЮВ - юго-восточный, Ю - южный, ЮЗ - юго-западный, З - западный, СЗ - северо-западный.
Видимость - горизонтальная дальность видимости в метрах или километрах. При видимости от 1 до 10 км при отсутствии осадков обычно наблюдается дымка, при ухудшении видимости до 1 км и менее - туман. В сухую погоду видимость может ухудшаться дымом, пылью или мглою.
Явления - указаны атмосферные явления, наблюдавшиеся в срок или в последний час перед сроком; фигурными скобками обозначены явления, наблюдавшиеся между сроками (за 1-3 часа до срока); квадратными скобками обозначены град или гололедные отложения с указанием их диаметра в мм.
Облачность - указаны через наклонную черту общая и нижняя облачность в баллах и высота нижней границы облаков в метрах; квадратными скобками обозначены формы облаков: Ci - перистые, Cs - перисто-слоистые, Cc - перисто-кучевые, Ac - высококучевые, As - высокослоистые, Sc - слоисто-кучевые, Ns - слоисто-дождевые, Cu - кучевые, Cb - кучево-дождевые. Подробнее классификацию облаков см. в Атласе облаков (PDF).
T - Температура воздуха - температура, измеренная на высоте 2 м над землей.
Td - Температура точки росы - температура, при понижении до которой содержащийся в воздухе водяной пар достигнет насыщения.
f - Относительная влажность воздуха - влажноcть воздуха, измеренная на высоте 2 м над землей.
Te - Эффективная температура - температура, которую ощущает одетый по сезону человек в тени. Характеристика душности погоды. При расчете учитывается влияние влажности воздуха и скорости ветра на теплоощущения человека.
Tes - Эффективная температура на солнце - температура, которую ощущает человек, с поправкой на солнечный нагрев. Характеристика знойности погоды. Зависит от высоты солнца над горизонтом, облачности и скорости ветра. Ночью, в пасмурную погоду, а также при ветре 12 м/с и более поправка равна нулю.
P - Атмосферное давление - приведенное к уровню моря атмосферное давление.
Po - Атмосферное давление - измеренное на уровне метеостанции атмосферное давление.
Tmin - Минимальная температура - минимум температуры воздуха на высоте 2 м над землей.
Tmax - Максимальная температура - максимум температуры воздуха на высоте 2 м над землей.
R - Количество осадков - Количество выпавших осадков за период времени, мм. При наведении курсора мыши на число - период времени, за который выпало указанное количество осадков.
R24 - Количество осадков - Количество выпавших осадков за 24 часа, мм.
S - Снежный покров - Высота снежного покрова, см. При наведении курсора мыши на число - состояние снежного покрова и степень покрытия местности в баллах.